DW9936 Weather Reports


Display with metric or nautical units.
time (UTC)temp
F
wind
direction
speed
MPH
gust
MPH
rain 1hr
in
rain 24hr
in
rain mn
in
humidity
%
barometer
mb
20260509223018 51 107 0.0 0.0 0.00 0.00 0.00 72 1018.9
20260509221516 51 107 0.0 0.0 0.00 0.00 0.00 71 1018.9
20260509220018 52 107 0.0 0.0 0.00 0.00 0.00 70 1018.9
20260509214510 52 107 0.0 0.0 0.00 0.00 0.00 70 1018.9
20260509213010 53 108 0.0 0.0 0.00 0.00 0.00 69 1018.9
20260509211509 53 108 0.0 0.0 0.00 0.00 0.00 68 1018.8
20260509210008 54 108 0.0 0.0 0.00 0.00 0.00 67 1018.8
20260509204508 55 107 0.0 0.0 0.00 0.00 0.00 66 1018.7
20260509203008 56 107 0.0 0.0 0.00 0.00 0.00 65 1018.6
20260509201509 57 107 0.0 0.0 0.00 0.00 0.00 63 1018.5
20260509200006 58 107 0.0 0.0 0.00 0.00 0.00 61 1018.2
20260509194509 59 108 0.0 0.0 0.00 0.00 0.00 60 1018.1
20260509193006 60 111 0.0 2.0 0.00 0.00 0.00 59 1017.9
20260509191506 60 107 0.0 2.0 0.00 0.00 0.00 58 1017.8
20260509190007 61 68 0.0 2.0 0.00 0.00 0.00 58 1017.5
20260509184513 62 76 0.0 0.0 0.00 0.00 0.00 56 1017.3
20260509183005 64 76 0.0 0.0 0.00 0.00 0.00 54 1016.9
20260509181504 65 78 0.0 1.0 0.00 0.00 0.00 52 1016.8
20260509180003 66 155 0.0 3.0 0.00 0.00 0.00 51 1016.8
20260509174503 67 134 0.0 3.0 0.00 0.00 0.00 49 1016.8
20260509173002 67 103 0.0 3.0 0.00 0.00 0.00 48 1016.7
20260509171501 67 78 0.0 1.0 0.00 0.00 0.00 48 1016.7
20260509170002 68 76 0.0 7.0 0.00 0.00 0.00 47 1016.7
20260509164502 68 131 0.0 5.0 0.00 0.00 0.00 46 1016.5
20260509163106 68 96 0.0 5.0 0.00 0.00 0.00 46 1016.4
20260509161600 68 101 0.0 2.0 0.00 0.00 0.00 45 1016.5
20260509160058 69 114 1.0 4.0 0.00 0.00 0.00 45 1016.7
20260509154608 70 132 0.0 4.0 0.00 0.00 0.00 44 1016.7
20260509153058 71 67 1.0 4.0 0.00 0.00 0.00 43 1016.7
20260509151556 71 243 1.0 5.0 0.00 0.00 0.00 42 1016.8
20260509150108 71 106 0.0 3.0 0.00 0.00 0.00 44 1016.9
20260509144600 69 240 0.0 3.0 0.00 0.00 0.00 46 1016.9
20260509143056 69 172 0.0 6.0 0.00 0.00 0.00 45 1017.0
20260509141553 69 108 1.0 6.0 0.00 0.00 0.00 45 1016.9
20260509140058 69 113 0.0 4.0 0.00 0.00 0.00 44 1017.0
20260509134552 69 67 0.0 5.0 0.00 0.00 0.00 46 1017.1
20260509133059 69 188 0.0 6.0 0.00 0.00 0.00 45 1017.0
20260509131549 69 114 0.0 4.0 0.00 0.00 0.00 45 1017.2
20260509130054 70 125 1.0 4.0 0.00 0.00 0.00 44 1017.2
20260509124554 70 74 1.0 4.0 0.00 0.00 0.00 44 1017.2
20260509123050 71 350 0.0 6.0 0.00 0.00 0.00 43 1017.3
20260509121556 71 159 0.0 7.0 0.00 0.00 0.00 45 1017.4
20260509120044 71 88 1.0 6.0 0.00 0.00 0.00 45 1017.5
20260509114555 70 234 0.0 6.0 0.00 0.00 0.00 46 1017.7
20260509113039 70 68 0.0 4.0 0.00 0.00 0.00 49 1017.8
20260509111536 69 51 0.0 3.0 0.00 0.00 0.00 50 1018.1
20260509110134 70 321 0.0 4.0 0.00 0.00 0.00 48 1018.3
20260509104530 69 89 0.0 4.0 0.00 0.00 0.00 49 1018.5
20260509103028 69 143 1.0 3.0 0.00 0.00 0.00 48 1018.6
20260509101525 67 118 2.0 7.0 0.00 0.00 0.00 51 1018.8
20260509100021 67 173 0.0 6.0 0.00 0.00 0.00 52 1018.9
20260509094523 66 138 1.0 7.0 0.00 0.00 0.00 53 1018.9
20260509093016 65 138 1.0 6.0 0.00 0.00 0.00 52 1019.0
20260509091513 64 232 0.0 5.0 0.00 0.00 0.00 53 1019.1
20260509090026 64 170 2.0 5.0 0.00 0.00 0.00 56 1019.1
20260509084507 63 96 0.0 3.0 0.00 0.00 0.00 58 1019.2
20260509083009 63 96 1.0 3.0 0.00 0.00 0.00 59 1019.3
20260509081502 62 90 0.0 5.0 0.00 0.00 0.00 61 1019.4
20260509080111 62 59 0.0 3.0 0.00 0.00 0.00 61 1019.4
20260509074555 62 104 0.0 3.0 0.00 0.00 0.00 62 1019.6
20260509073105 60 156 0.0 3.0 0.00 0.00 0.00 64 1019.7
20260509071549 60 78 0.0 4.0 0.00 0.00 0.00 66 1019.8
20260509070049 59 148 0.0 3.0 0.00 0.00 0.00 69 1019.8
20260509064541 58 28 0.0 0.0 0.00 0.00 0.00 69 1019.8
20260509063041 58 90 0.0 2.0 0.00 0.00 0.00 71 1019.7
20260509061535 57 270 0.0 3.0 0.00 0.00 0.00 71 1019.7
20260509060032 56 289 0.0 3.0 0.00 0.00 0.00 74 1019.6
20260509054529 55 258 0.0 3.0 0.00 0.00 0.00 76 1019.5
20260509053038 53 309 0.0 2.0 0.00 0.00 0.00 80 1019.5
20260509051524 52 346 0.0 2.0 0.00 0.00 0.00 82 1019.3
20260509050041 50 9 0.0 1.0 0.00 0.00 0.00 85 1019.1
20260509044518 49 13 0.0 1.0 0.00 0.00 0.00 87 1019.0
20260509043030 48 13 0.0 0.0 0.00 0.00 0.00 87 1018.9
20260509041514 48 13 0.0 0.0 0.00 0.00 0.00 87 1018.8
20260509040011 47 13 0.0 0.0 0.00 0.00 0.00 86 1018.8
20260509034509 48 13 0.0 1.0 0.00 0.00 0.00 86 1018.8
20260509033008 48 13 0.0 0.0 0.00 0.00 0.00 85 1018.8
20260509031507 48 13 0.0 0.0 0.00 0.00 0.00 85 1018.9
20260509030017 49 13 0.0 0.0 0.00 0.00 0.00 86 1018.8
20260509024505 48 13 0.0 0.0 0.00 0.00 0.00 86 1018.9
20260509023005 48 13 0.0 0.0 0.00 0.00 0.00 85 1018.8
20260509021503 49 13 0.0 0.0 0.00 0.00 0.00 84 1018.8
20260509020001 49 13 0.0 0.0 0.00 0.00 0.00 83 1018.8
20260509014558 50 13 0.0 0.0 0.00 0.00 0.00 83 1018.7
20260509013105 50 13 0.0 0.0 0.00 0.00 0.00 82 1018.7
20260509011603 51 13 0.0 0.0 0.00 0.00 0.00 82 1018.7
20260509010057 51 13 0.0 0.0 0.00 0.00 0.00 81 1018.7
20260509004559 52 13 0.0 0.0 0.00 0.00 0.00 81 1018.6
20260509003051 52 13 0.0 0.0 0.00 0.00 0.00 81 1018.6
20260509001553 52 14 0.0 1.0 0.00 0.00 0.00 80 1018.7
20260509000050 52 36 0.0 0.0 0.00 0.00 0.00 80 1018.7
20260508234548 52 46 0.0 1.0 0.00 0.00 0.00 80 1018.7
20260508233048 52 69 0.0 0.0 0.00 0.00 0.00 80 1018.7
20260508231552 53 69 0.0 0.0 0.00 0.00 0.00 79 1018.8
20260508230040 54 69 0.0 0.0 0.00 0.00 0.00 77 1018.7
20260508224559 54 69 0.0 0.0 0.00 0.00 0.00 76 1018.7